Weather History for KPTS - February, 2013

Change the Weather History Date:

Monday, February 25, 2013

  Actual Average (KJLN) Record (KJLN)
Temperature  
Mean Temperature 38 °F 43 °F  
Max Temperature 40 °F 54 °F 75 °F (1981)
Min Temperature 35 °F 32 °F 0 °F (1965)
Degree Days  
Heating Degree Days 28 22  
Month to date heating degree days 640  
Since 1 July heating degree days 3189  
Cooling Degree Days 0 0  
Month to date cooling degree days 0  
Year to date cooling degree days 0  
Moisture  
Dew Point 33 °F    
Average Humidity 84    
Maximum Humidity 100    
Minimum Humidity 69    
Precipitation  
Precipitation 0.00 in 0.09 in 0.82 in (1957)
Month to date precipitation 2.04  
Year to date precipitation 4.07  
Sea Level Pressure  
Sea Level Pressure 29.72 in    
Wind  
Wind Speed 11 mph (ENE)    
Max Wind Speed 26 mph    
Max Gust Speed 39 mph    
Visibility 8 miles    
Events      
T = Trace of Precipitation, MM = Missing Value Source: NWS Daily Summary

Daily Weather History Graph

Daily Weather History Graph

Search for Another Location

Airport or City:

Trip Planner

Search our weather history database for the weather conditions in past years. The results will help you decide how hot, cold, wet, or windy it might be!

Date:

Astronomy

Feb. 25, 2013 Rise Set
Actual Time 6:55 AM CST 6:09 PM CST
Civil Twilight 6:28 AM CST 6:35 PM CST
Nautical Twilight 5:58 AM CST 7:05 PM CST
Astronomical Twilight 5:28 AM CST 7:36 PM CST
Moon 6:21 PM CST (2/25) 6:26 AM CST (2/25)
Length of Visible Light 12h 06m
Length of Day
11h 13m
Full, 100% of the Moon is Illuminated
Feb 25
Full
Feb 25
Full
Mar 4
Last Quarter
Mar 11
New
Mar 19
First Quarter

Hourly Weather History & Observations

Time (CST) Temp. Windchill Dew Point Humidity Pressure Visibility Wind Dir Wind Speed Gust Speed Precip Events Conditions
12:15 AM 40.5 °F 34.1 °F 31.5 °F 70% 29.88 in 10.0 mi East 10.4 mph - N/A   Clear
12:35 AM 40.5 °F 34.1 °F 31.1 °F 69% 29.88 in 10.0 mi East 10.4 mph - N/A   Clear
12:55 AM 40.5 °F 35.1 °F 30.9 °F 69% 29.90 in 10.0 mi East 8.1 mph - N/A   Clear
1:15 AM 40.5 °F 34.1 °F 31.1 °F 69% 29.90 in 10.0 mi ESE 10.4 mph - N/A   Clear
1:35 AM 40.5 °F 35.1 °F 31.1 °F 69% 29.89 in 10.0 mi ESE 8.1 mph - N/A   Clear
1:55 AM 40.5 °F 35.1 °F 31.1 °F 69% 29.89 in 10.0 mi ESE 8.1 mph - N/A   Clear
2:15 AM 40.5 °F 34.1 °F 31.6 °F 71% 29.88 in 10.0 mi ESE 10.4 mph - N/A   Clear
2:35 AM 40.5 °F 35.1 °F 31.8 °F 71% 29.88 in 10.0 mi ESE 8.1 mph - N/A   Clear
2:55 AM 39.2 °F 33.0 °F 31.1 °F 73% 29.87 in 10.0 mi ESE 9.2 mph - N/A   Clear
3:15 AM 37.9 °F 31.5 °F 30.7 °F 75% 29.86 in 10.0 mi ESE 9.2 mph - N/A   Clear
3:35 AM 37.9 °F 31.5 °F 31.1 °F 76% 29.85 in 10.0 mi ESE 9.2 mph - N/A   Clear
3:55 AM 37.9 °F 32.7 °F 31.1 °F 76% 29.86 in 10.0 mi East 6.9 mph - N/A   Clear
4:15 AM 37.9 °F 32.7 °F 31.3 °F 77% 29.85 in 10.0 mi ESE 6.9 mph - N/A   Clear
4:35 AM 37.9 °F 33.5 °F 31.6 °F 78% 29.85 in 10.0 mi East 5.8 mph - N/A   Clear
4:55 AM 37.4 °F 33.8 °F 31.5 °F 79% 29.86 in 10.0 mi East 4.6 mph - N/A   Clear
5:15 AM 36.3 °F 31.6 °F 30.7 °F 80% 29.85 in 10.0 mi NE 5.8 mph - N/A   Clear
5:35 AM 35.6 °F 30.7 °F 30.2 °F 81% 29.85 in 10.0 mi ENE 5.8 mph - N/A   Clear
5:55 AM 35.6 °F 29.9 °F 30.4 °F 81% 29.84 in 10.0 mi ENE 6.9 mph - N/A   Clear
6:15 AM 35.6 °F 29.9 °F 30.9 °F 83% 29.82 in 10.0 mi ENE 6.9 mph - N/A   Scattered Clouds
6:35 AM 35.6 °F 27.5 °F 30.6 °F 82% 29.81 in 10.0 mi ENE 11.5 mph - N/A   Mostly Cloudy
6:55 AM 35.6 °F 28.6 °F 29.3 °F 78% 29.80 in 10.0 mi ENE 9.2 mph - N/A   Scattered Clouds
7:15 AM 35.6 °F 28.6 °F 29.1 °F 77% 29.80 in 10.0 mi East 9.2 mph - N/A   Scattered Clouds
7:35 AM 35.6 °F 29.2 °F 29.3 °F 78% 29.80 in 10.0 mi ENE 8.1 mph - N/A   Scattered Clouds
7:55 AM 35.6 °F 28.6 °F 29.3 °F 78% 29.81 in 10.0 mi East 9.2 mph - N/A   Scattered Clouds
8:15 AM 36.7 °F 28.9 °F 30.2 °F 77% 29.79 in 10.0 mi ENE 11.5 mph - N/A   Clear
8:35 AM 37.9 °F 30.9 °F 30.4 °F 74% 29.78 in 10.0 mi ENE 10.4 mph 17.3 mph N/A   Clear
8:55 AM 37.9 °F 31.5 °F 29.8 °F 73% 29.79 in 10.0 mi ENE 9.2 mph - N/A   Clear
9:15 AM 37.9 °F 34.4 °F 29.1 °F 71% 29.81 in 10.0 mi NE 4.6 mph - N/A   Clear
9:35 AM 37.9 °F 32.1 °F 29.3 °F 71% 29.82 in 10.0 mi NE 8.1 mph - N/A   Scattered Clouds
9:55 AM 37.9 °F 33.5 °F 29.7 °F 72% 29.82 in 10.0 mi ENE 5.8 mph - N/A   Scattered Clouds
10:15 AM 37.9 °F 31.5 °F 30.7 °F 75% 29.82 in 10.0 mi NNE 9.2 mph - N/A   Mostly Cloudy
10:35 AM 37.9 °F 30.9 °F 32.2 °F 80% 29.79 in 10.0 mi NNE 10.4 mph - N/A   Mostly Cloudy
10:55 AM 37.9 °F 30.5 °F 32.7 °F 81% 29.79 in 10.0 mi NE 11.5 mph - N/A   Mostly Cloudy
11:15 AM 37.8 °F 30.7 °F 32.7 °F 82% 29.79 in 10.0 mi NNE 10.4 mph - N/A   Scattered Clouds
11:35 AM 37.9 °F 31.5 °F 32.4 °F 80% 29.80 in 7.0 mi NNE 9.2 mph 17.3 mph N/A   Mostly Cloudy
11:55 AM 36.9 °F 29.6 °F 32.0 °F 83% 29.78 in 3.0 mi NE 10.4 mph - N/A   Overcast
12:15 PM 35.6 °F 27.1 °F 32.5 °F 89% 29.75 in 3.0 mi NE 12.7 mph 19.6 mph N/A   Overcast
12:35 PM 35.6 °F 27.1 °F 33.1 °F 91% 29.76 in 5.0 mi NNE 12.7 mph 18.4 mph N/A   Overcast
12:55 PM 35.6 °F 27.5 °F 33.6 °F 92% 29.75 in 2.0 mi North 11.5 mph 20.7 mph N/A   Overcast
1:15 PM 35.6 °F 25.5 °F 35.4 °F 99% 29.73 in 2.5 mi NNE 17.3 mph 23.0 mph N/A   Overcast
1:35 PM 35.6 °F 27.1 °F 35.6 °F 100% 29.77 in 2.0 mi NNE 12.7 mph - N/A   Overcast
1:55 PM 35.6 °F 25.9 °F 35.6 °F 100% 29.75 in 1.5 mi NNE 16.1 mph 21.9 mph N/A   Overcast
2:15 PM 35.6 °F 25.2 °F 35.6 °F 100% 29.71 in 1.2 mi NNE 18.4 mph 26.5 mph N/A   Overcast
2:35 PM 35.6 °F 24.8 °F 35.6 °F 100% 29.69 in 1.5 mi NE 19.6 mph 27.6 mph N/A   Overcast
2:55 PM 35.6 °F 24.5 °F - N/A% 29.66 in 1.5 mi NE 20.7 mph 36.8 mph N/A   Overcast
3:15 PM 35.6 °F 24.5 °F - N/A% 29.65 in 1.8 mi NE 20.7 mph 29.9 mph N/A   Overcast
3:35 PM 35.6 °F 24.5 °F - N/A% 29.63 in 1.5 mi NE 20.7 mph 29.9 mph N/A   Overcast
3:55 PM 35.6 °F 23.7 °F - N/A% 29.62 in 2.0 mi NE 24.2 mph 31.1 mph N/A   Overcast
4:15 PM 35.6 °F 24.5 °F - N/A% 29.60 in 5.0 mi NE 20.7 mph 33.4 mph N/A   Overcast
4:35 PM 35.6 °F 23.2 °F - N/A% 29.58 in 5.0 mi NE 26.5 mph 35.7 mph N/A   Overcast
4:55 PM 35.6 °F 24.2 °F - N/A% 29.58 in 7.0 mi NE 21.9 mph 35.7 mph N/A   Overcast
5:15 PM 35.6 °F 24.8 °F - N/A% 29.59 in 7.0 mi NE 19.6 mph 39.1 mph N/A   Overcast
5:35 PM 35.6 °F 24.8 °F - N/A% 29.58 in 5.0 mi ENE 19.6 mph 28.8 mph N/A   Overcast
5:55 PM 35.6 °F 23.7 °F 35.6 °F 100% 29.56 in 2.5 mi NE 24.2 mph 31.1 mph N/A   Overcast
6:15 PM 35.6 °F 25.9 °F 35.6 °F 100% 29.57 in 7.0 mi NE 16.1 mph 28.8 mph N/A   Overcast
6:35 PM 35.6 °F 26.6 °F 35.6 °F 100% 29.60 in 5.0 mi ENE 13.8 mph 26.5 mph N/A   Overcast
6:55 PM 35.6 °F 24.5 °F 35.6 °F 100% 29.62 in 4.0 mi ENE 20.7 mph 27.6 mph N/A   Overcast
7:15 PM 35.6 °F 26.2 °F 35.6 °F 100% 29.60 in 2.5 mi NE 15.0 mph 25.3 mph N/A   Overcast
7:55 PM 35.6 °F 26.2 °F 35.6 °F 100% 29.58 in 5.0 mi NE 15.0 mph 21.9 mph N/A   Overcast
8:15 PM 35.6 °F 26.2 °F 35.6 °F 100% 29.57 in 7.0 mi NE 15.0 mph 24.2 mph N/A   Overcast
8:35 PM 35.6 °F 24.8 °F - N/A% 29.57 in 7.0 mi NE 19.6 mph 24.2 mph N/A   Overcast
8:55 PM 35.6 °F 25.5 °F - N/A% 29.57 in 10.0 mi ENE 17.3 mph 25.3 mph N/A   Overcast
9:15 PM 35.6 °F 25.9 °F - N/A% 29.55 in 10.0 mi NE 16.1 mph 24.2 mph N/A   Overcast
9:35 PM 35.6 °F 25.2 °F - N/A% 29.54 in 10.0 mi NE 18.4 mph 27.6 mph N/A   Overcast
9:55 PM 35.6 °F 25.5 °F 35.8 °F 100% 29.54 in 10.0 mi NE 17.3 mph 25.3 mph N/A   Overcast
10:15 PM 35.6 °F 25.5 °F 35.6 °F 100% 29.52 in 10.0 mi NE 17.3 mph 28.8 mph N/A   Overcast
10:35 PM 35.6 °F 25.9 °F 35.6 °F 100% 29.52 in 10.0 mi NE 16.1 mph 29.9 mph N/A   Overcast
10:55 PM 35.6 °F 24.2 °F 35.6 °F 100% 29.51 in 10.0 mi NE 21.9 mph 29.9 mph N/A   Overcast
11:15 PM 35.6 °F 25.5 °F 35.6 °F 100% 29.51 in 10.0 mi NE 17.3 mph 24.2 mph N/A   Overcast
11:35 PM 35.6 °F 26.2 °F 35.6 °F 100% 29.51 in 10.0 mi NE 15.0 mph 24.2 mph N/A   Overcast
11:55 PM 35.6 °F 27.1 °F 35.6 °F 100% 29.51 in 10.0 mi NE 12.7 mph 23.0 mph N/A   Overcast